Voltar ao catálogo

STARLINK-32417

AtivoComunicaçõesVLEO
NORAD 61673·PAYLOAD·🇺🇸 United States

Lançado Oct 26, 2024 de Cape Canaveral Space Force Station

Loading…

Próximas Passagens (próximas 24 horas)

TLE

AtualizadoSource: CelesTrak SupGP

Época: Sep 15, 2026, 02:27 UTC

1 61673C 24193N   26258.10256944  .00021395  00000+0  68787-3 0  2582
2 61673  53.1588 289.9188 0001190  93.3256 305.0153 15.31697246    11

Acompanhe STARLINK-32417 em tempo real com AllMySat

Download on the App Store